EW9994 Weather Reports


time (UTC)temp
C
wind
direction
speed
KPH
gust
KPH
rain 1hr
cm
rain 24hr
cm
rain mn
cm
humidity
%
barometer
mb
20260504110406 21 166 9.7 12.9 0.00 0.00 0.00 41 1019.1
20260504081406 16 191 4.8 8.0 0.00 0.00 0.00 67 1020.2
20260504070406 13 261 3.2 9.7 0.00 0.00 0.00 71 1020.2
20260504050406 10 34 3.2 8.0 0.00 0.00 0.00 79 1019.8
20260504043906 10 34 4.8 9.7 0.00 0.00 0.00 77 1019.5
20260504041906 10 34 8.0 11.3 0.00 0.00 0.00 77 1019.3
20260504041405 10 33 8.0 12.9 0.00 0.00 0.00 77 1019.3
20260504034905 10 39 4.8 11.3 0.00 0.00 0.00 77 1019.3
20260504033905 10 41 4.8 11.3 0.00 0.00 0.00 76 1019.2
20260504033406 10 32 8.0 12.9 0.00 0.00 0.00 76 1019.2
20260504030906 10 36 8.0 11.3 0.00 0.00 0.00 75 1019.2
20260504030406 10 36 8.0 12.9 0.00 0.00 0.00 75 1019.2
20260504024906 10 36 8.0 11.3 0.00 0.00 0.00 75 1019.2
20260504024406 10 36 8.0 9.7 0.00 0.00 0.00 75 1019.2
20260504021906 10 36 4.8 11.3 0.00 0.00 0.00 73 1019.3
20260504021406 10 36 9.7 12.9 0.00 0.00 0.00 73 1019.3
20260504004906 11 37 6.4 11.3 0.00 0.00 0.00 68 1019.3
20260504004405 11 36 8.0 12.9 0.00 0.00 0.00 67 1019.3
20260504001905 11 31 8.0 12.9 0.00 0.00 0.00 67 1019.4
20260504000906 11 28 9.7 14.5 0.00 0.00 0.00 68 1019.4
20260503234405 11 40 8.0 11.3 0.00 0.00 0.00 66 1019.6
20260503233905 11 40 8.0 11.3 0.00 0.00 0.00 67 1019.6
20260503231405 12 40 4.8 9.7 0.00 0.00 0.00 66 1019.7
20260503230406 12 41 8.0 14.5 0.00 0.00 0.00 67 1019.7
20260503223905 12 43 3.2 9.7 0.00 0.00 0.00 64 1019.7
20260503220906 12 37 8.0 12.9 0.00 0.00 0.00 64 1019.7
20260503220408 12 30 9.7 16.1 0.00 0.00 0.00 64 1019.7
20260503214407 12 42 4.8 9.7 0.00 0.00 0.00 63 1019.6
20260503211907 13 41 3.2 9.7 0.00 0.00 0.00 62 1019.4
20260503210406 13 44 1.6 16.1 0.00 0.00 0.00 60 1019.3
20260503204405 13 8 3.2 8.0 0.00 0.00 0.00 59 1019.2
20260503203408 13 6 3.2 9.7 0.00 0.00 0.00 58 1019.2
20260503201905 14 5 3.2 4.8 0.00 0.00 0.00 59 1019.1
20260503200905 14 5 3.2 9.7 0.00 0.00 0.00 57 1019.1
20260503194405 15 43 4.8 9.7 0.00 0.00 0.00 61 1019.1
20260503193906 15 43 4.8 8.0 0.00 0.00 0.00 62 1019.0
20260503191406 15 44 4.8 9.7 0.00 0.00 0.00 63 1018.7
20260503190407 15 44 8.0 12.9 0.00 0.00 0.00 64 1018.6
20260503184907 16 44 4.8 9.7 0.00 0.00 0.00 63 1018.6
20260503184407 16 27 6.4 12.9 0.00 0.00 0.00 63 1018.6
20260503183906 16 55 8.0 12.9 0.00 0.00 0.00 63 1018.5
20260503183407 16 35 9.7 12.9 0.00 0.00 0.00 63 1018.6
20260503181907 16 23 4.8 9.7 0.00 0.00 0.00 63 1018.4
20260503181407 17 23 3.2 9.7 0.00 0.00 0.00 62 1018.4
20260503180906 17 26 8.0 12.9 0.00 0.00 0.00 61 1018.3
20260503180406 17 26 8.0 12.9 0.00 0.00 0.00 61 1018.3
20260503174907 18 29 8.0 12.9 0.00 0.00 0.00 60 1018.2
20260503174407 18 29 9.7 16.1 0.00 0.00 0.00 59 1018.1
20260503173906 18 34 8.0 12.9 0.00 0.00 0.00 58 1018.0
20260503173406 18 36 6.4 11.3 0.00 0.00 0.00 57 1018.0
20260503171907 20 119 1.6 3.2 0.00 0.00 0.00 50 1018.0
20260503170906 21 220 3.2 4.8 0.00 0.00 0.00 47 1018.1
20260503170407 21 227 1.6 12.9 0.00 0.00 0.00 47 1018.1
20260503150406 22 230 4.8 16.1 0.00 0.00 0.00 42 1018.3